CZ-6A DEB, 56636

Orbit data source: Space-Track

CZ-6A DEB, 56636 is space debris in SSO originally from a launch on Fri, 11 Nov 2022 UTC launched from the Taiyaun Space Center, China (TSC). Debris objects in space refer to the collection of defunct objects orbiting the Earth. Examples of debris include non-operational satellites, rocket bodies, and fragments generated from explosions, collisions, or faulty payload assembly.

Loading next visibility...
Identifier
56636, 2022-151AFL
Orbit
SSO
Country
Flag of CNCN / PRC
Related business
Manufacturer
SAST
Mission
Spacecraft
Bus & Motor
Unknown
Mass
Unknown
Launch date (UTC)
2022-11-11 (4 years ago)
Launch vehicle
Unknown
Launch site
Taiyaun Space Center, China (TSC)
Object type
Payload
Rocket body
Debris
Shape & HBR
Unknown shape, 0.1 m
Radar Cross Section
Medium (>0.1 m² and <1 m²)

Expand to show TLE details & history
Last TLE update: 2 days ago

TLE from 2 days ago
0 CZ-6A DEB
1 56636U 22151AFL 26171.45000748  .00001079  00000-0  59067-3 0  9999
2 56636  98.8330 168.5074 0074415   3.6854 356.4851 14.12621537167364
Epoch: 2026-06-20T10:48Z
TLE epoch observation values (Epoch: 2026-06-20T10:48:00.646Z)
Latitude
-0°
Longitude
97.84025°
Altitude
799.616 km
Speed
7.481 km/s
True Right ascension
11h 14m 01s
True Declination
0° 00' 00"
Sunlit
Object was in daylight at epoch
Visualization orbit readout
Latitude
Unknown
Longitude
Unknown
Altitude
Unknown
Speed
Unknown
Apparent Right ascension
Unknown
Apparent Declination
Unknown
Sunlit
N/A
Visualization observer readout
Local Sidereal Time
21:55:09
Azimuth
Unknown
Elevation
Unknown
Doppler factor
Unknown
Orbital elements
Apogee altitude
901.359 km
Perigee altitude
793.819 km
Semi-major axis
7,225.726 km
Eccentricity
0.00744
Inclination
98.833°
RAAN
168.5074°
Arg. of periapsis
3.6854°
True anomaly
356.43233°
Mean anomaly
356.4851°
Eccentric anomaly
356.45876°
Mean motion
3.53363 °/min
Orbital period
101.88 mins
BSTAR
0.00059067
Loading maneuver chart data...
Computing Atmospheric mass density...
Loading historical data...
Loading historical data...
Loading historical data...
Loading historical data...
Loading historical data...
Loading historical data...
Loading historical data...

Documentation

Showing up to 5 results
|